Flag for Luxembourg Weather past 2 weeks in Luxembourg, Luxembourg

Now
63 °F

Sunny.


Feels Like: 63 °F
Forecast: 60 / 72 °F
Wind: 2 mph from North

Location: Luxembourg Airport

Current Time: Jul 28, 2014 at 7:53:44 AM

Latest Report: Jul 28, 2014 at 7:20 AM


Visibility: 10 mi

Pressure: 29.92 "Hg

Humidity: 88%

Dew point: 59 °F

Location of LuxembourgLocation

Historic Weather in Luxembourg — Graph

°F

Luxembourg temperature yesterday

Maximum temperature yesterday: 79 °F (at 3:50 PM)
Minimum temperature yesterday: 59 °F (at 6:20 AM)
Average temperature yesterday: 70 °F

Past Weeks' High & Low Weather Summary

 TemperatureHumidityPressure
High90 °F (Jul 18, 3:50 PM)100% (Jul 13, 11:20 PM)30.21 "Hg (Jul 13, 11:20 PM)
Low55 °F (Jul 15, 4:50 AM)29% (Jul 19, 2:20 PM)29.80 "Hg (Jul 13, 5:20 PM)
Average70 °F67%30.00 "Hg
* Reported Jul 13 6:20 AM — Jul 28 6:50 AM, Luxembourg, Weather by CustomWeather, © 2014

Note: Actual official high and low records may vary slightly from our data, if they occured in-between our weather recording intervals... More about our weather records

Advertising

Luxembourg weather history for previous 24 hours

 ConditionsComfort  
Time TempWeatherWind HumidityBarometerVisibility
6:50 AM
Jul 28
61 °FClear.6 mph94%29.92 "Hg10 mi
6:20 AM61 °FClear.3 mph88%29.92 "Hg10 mi
5:50 AM63 °FPassing clouds.5 mph88%29.92 "HgN/A
5:20 AM63 °FClear.5 mph88%29.92 "Hg10 mi
4:50 AM63 °FPassing clouds.6 mph88%29.92 "HgN/A
4:20 AM63 °FMild.8 mph88%29.92 "HgN/A
3:50 AM64 °FMild.7 mph83%29.95 "HgN/A
3:20 AM64 °FMild.8 mph83%29.95 "HgN/A
2:50 AM64 °FPassing clouds.8 mph83%29.95 "HgN/A
2:20 AM64 °FPassing clouds.8 mph83%29.95 "HgN/A
1:50 AM66 °FPassing clouds.8 mph78%29.98 "HgN/A
1:20 AM66 °FMild.9 mph83%29.98 "HgN/A
12:50 AM64 °FClear.9 mph83%29.98 "Hg10 mi
12:20 AM66 °FClear.8 mph78%29.98 "Hg10 mi
11:50 PM
Jul 27
66 °FPassing clouds.9 mph78%29.98 "HgN/A
11:20 PM66 °FPassing clouds.9 mph83%30.01 "HgN/A
10:50 PM68 °FPassing clouds.2 mph78%30.01 "HgN/A
10:20 PM68 °FScattered clouds.3 mph78%30.01 "HgN/A
9:50 PM70 °FScattered clouds.2 mph73%30.01 "HgN/A
9:20 PM72 °FScattered clouds.3 mph69%30.01 "HgN/A
8:50 PM75 °FPassing clouds.3 mph61%29.98 "HgN/A
8:20 PM75 °FPassing clouds.3 mph57%29.98 "HgN/A
7:50 PM75 °FPassing clouds.5 mph57%29.98 "HgN/A
7:20 PM75 °FPassing clouds.6 mph61%29.98 "HgN/A
6:50 PM77 °FPassing clouds.6 mph57%29.98 "HgN/A
6:20 PM77 °FPassing clouds.9 mph57%29.98 "HgN/A
5:50 PM77 °FPassing clouds.8 mph57%29.98 "HgN/A
5:20 PM77 °FPassing clouds.1 mph47%29.98 "HgN/A
4:50 PM77 °FScattered clouds.2 mph47%30.01 "HgN/A
4:20 PM77 °FPassing clouds.3 mph51%30.01 "HgN/A
3:50 PM79 °FPassing clouds.2 mph45%30.01 "HgN/A
3:20 PM77 °FPassing clouds.3 mph51%30.04 "HgN/A
2:50 PM75 °FScattered clouds.3 mph50%30.04 "HgN/A
2:20 PM75 °FPassing clouds.6 mph54%30.04 "HgN/A
1:50 PM75 °FPassing clouds.5 mph57%30.04 "HgN/A
1:20 PM77 °FPassing clouds.2 mph54%30.04 "HgN/A
12:50 PM73 °FPassing clouds.5 mph61%30.04 "HgN/A
12:20 PM75 °FPassing clouds.6 mph57%30.04 "HgN/A
11:50 AM73 °FPassing clouds.3 mph61%30.04 "HgN/A
11:20 AM73 °FPassing clouds.3 mph61%30.04 "HgN/A
10:50 AM72 °FPassing clouds.2 mph69%30.04 "HgN/A
10:20 AM72 °FSunny.No wind69%30.04 "Hg10 mi
9:50 AM70 °FSunny.3 mph78%30.04 "Hg10 mi
9:20 AM68 °FPassing clouds.5 mph78%30.04 "HgN/A
8:50 AM68 °FSunny.3 mph78%30.04 "Hg10 mi
8:20 AM68 °FSunny.1 mph78%30.04 "Hg10 mi
7:50 AM64 °FSunny.2 mph83%30.04 "Hg10 mi
7:20 AM61 °FPassing clouds.No wind94%30.04 "HgN/A
Weather by CustomWeather, © 2014

See weather overviewHow to use our weather pages